Skip Page Navigation
NASA JPL Caltech
NASA Logo - Jet Propulsion Laboratory + View the NASA Portal
+ Near-Earth Object (NEO) Program
Search JPL
JPL Home Earth Solar System Stars & Galaxies Technology
JPL Solar System Dynamics
BODIES ORBITS EPHEMERIDES TOOLS PHYSICAL DATA DISCOVERY FAQ SITE MAP
JPL Small-Body Database Browser
Search: [ help ]  
7534 (1995 UA7)
Classification: Main-belt Asteroid          SPK-ID: 2007534
Ephemeris | Orbit Diagram | Orbital Elements | Physical Parameters | Discovery Circumstances | Close-Approach Data ]

[ show orbit diagram ]
Orbital Elements at Epoch 2457600.5 (2016-Jul-31.0) TDB
Reference: JPL 15 (heliocentric ecliptic J2000)
 Element Value Uncertainty (1-sigma)   Units 
e .2500498880139714 4.7785e-08  
a 2.294799100548157 1.0867e-08 au
q 1.720984842441528 1.1268e-07 au
i 5.670465265744586 4.7066e-06 deg
node 97.84969408111411 4.8684e-05 deg
peri 204.164077993766 4.9502e-05 deg
M 63.73944149864184 1.0886e-05 deg
tp 2457375.687121506402
(2015-Dec-19.18712151)
3.7647e-05 JED
period 1269.741848293726
3.48
9.0191e-06
2.469e-08
d
yr
n .2835221982198717 2.0139e-09 deg/d
Q 2.868613358654786 1.3584e-08 au
  Orbit Determination Parameters
   # obs. used (total)      1398  
   data-arc span      9778 days (26.77 yr)  
   first obs. used      1988-11-04  
   last obs. used      2015-08-13  
   planetary ephem.      DE431  
   SB-pert. ephem.      SB431-BIG16  
   condition code      0  
   fit RMS      .4967  
   data source      ORB  
   producer      Otto Matic  
   solution date      2015-Sep-02 14:22:19  

Additional Information
 Earth MOID = .706954 au 
 Jupiter MOID = 2.36424 au 
 T_jup = 3.547 
[ show covariance matrix ]

Ephemeris | Orbit Diagram | Orbital Elements | Physical Parameters | Discovery Circumstances | Close-Approach Data ]

Physical Parameter Table
Parameter Symbol Value Units Sigma Reference Notes
absolute magnitude H 13.6 mag n/a MPO337319  

7534 (1995 UA7)          Discovered 1995-Oct-26 by Shimizu, Y., Urata, T. at Nachi-Katsuura
Reference: DISCOVERY.DBLast Updated: 2003-08-29

[ show close-approach data ]
Alternate Designations
 1995 UA7 = 1988 VF13 = 1991 NW = 1993 BS1 = 1998 MX46 
Ephemeris | Orbit Diagram | Orbital Elements | Physical Parameters | Discovery Circumstances | Close-Approach Data ]
ABOUT SSD CREDITS/AWARDS PRIVACY/COPYRIGHT GLOSSARY LINKS
FirstGov 2016-Apr-29 13:58 UT
(server date/time)  
NASA Home Page
Site Manager:   Ryan S. Park
Webmaster  Alan B. Chamberlin